Flag for India Weather past 2 weeks in Kannauj, Uttar Pradesh, India

Now
82 °F

Partly cloudy.


Feels Like: 89 °F
Forecast: 80 / 94 °F
Wind: 2 mph from North

Location: Lucknow / Amausi

Current Time: Jul 30, 2015 at 4:06:50 AM

Latest Report: Jul 30, 2015 at 3:00 AM


Visibility: 2 mi

Pressure: 29.56 "Hg

Humidity: 79%

Dew point: 75 °F

Location of KannaujLocation

Historic Weather in Kannauj — Graph

°F

Kannauj temperature yesterday

Maximum temperature yesterday: 97 °F (at 2:30 PM)
Minimum temperature yesterday: 79 °F (at 5:00 AM)
Average temperature yesterday: 89 °F

Past Weeks' High & Low Weather Summary

 TemperatureHumidityPressure
High99 °F (Jul 15, 12:30 PM)100% (Jul 24, 6:30 PM)29.65 "Hg (Jul 24, 6:30 PM)
Low79 °F (Jul 24, 3:30 PM)53% (Jul 28, 5:30 PM)29.33 "Hg (Jul 15, 3:30 PM)
Average88 °F78%29.51 "Hg
* Reported Jul 15 2:00 AM — Jul 30 2:00 AM, Kannauj, Weather by CustomWeather, © 2015

Note: Actual official high and low records may vary slightly from our data, if they occured in-between our weather recording intervals... More about our weather records

Advertising

Kannauj weather history for previous 24 hours

 ConditionsComfort  
Time TempWeatherWind HumidityBarometerVisibility
2:00 AM
Thu, Jul 30
84 °FPartly cloudy.2 mph79%29.56 "Hg2 mi
1:00 AM84 °FPassing clouds.2 mph79%29.53 "Hg2 mi
12:00 AM84 °FPassing clouds.2 mph79%29.53 "Hg2 mi
11:00 PM
Wed, Jul 29
86 °FPassing clouds.2 mph75%29.56 "Hg2 mi
10:00 PM86 °FPartly cloudy.5 mph75%29.53 "Hg2 mi
9:00 PM88 °FPartly cloudy.No wind79%29.53 "Hg2 mi
8:30 PM88 °FPartly cloudy.No wind79%29.50 "Hg2 mi
7:30 PM88 °FLight rain. Partly cloudy.2 mph75%29.50 "Hg2 mi
7:00 PM90 °FLight rain. Broken clouds.2 mph67%29.50 "Hg2 mi
6:30 PM91 °FLight rain. Broken clouds.2 mph63%29.47 "Hg3 mi
6:00 PM93 °FLight rain. Broken clouds.5 mph59%29.47 "Hg3 mi
5:00 PM95 °FScattered clouds.6 mph56%29.47 "Hg4 mi
4:30 PM95 °FScattered clouds.8 mph56%29.47 "Hg4 mi
4:00 PM95 °FScattered clouds.6 mph56%29.47 "Hg4 mi
3:30 PM97 °FScattered clouds.7 mph56%29.50 "Hg4 mi
3:00 PM97 °FScattered clouds.6 mph56%29.50 "Hg4 mi
2:30 PM97 °FScattered clouds.6 mph56%29.53 "Hg4 mi
2:00 PM95 °FScattered clouds.7 mph56%29.53 "Hg4 mi
1:30 PM95 °FScattered clouds.7 mph56%29.53 "Hg4 mi
1:00 PM95 °FBroken clouds.6 mph56%29.56 "Hg3 mi
12:30 PM93 °FBroken clouds.7 mph59%29.56 "Hg3 mi
12:00 PM93 °FBroken clouds.8 mph56%29.56 "Hg3 mi
11:00 AM91 °FBroken clouds.12 mph59%29.59 "Hg3 mi
10:30 AM90 °FBroken clouds.8 mph63%29.59 "Hg3 mi
10:00 AM90 °FScattered clouds.8 mph63%29.59 "Hg3 mi
9:30 AM88 °FScattered clouds.9 mph66%29.59 "Hg3 mi
9:00 AM88 °FPassing clouds.8 mph62%29.59 "Hg3 mi
8:00 AM84 °FHaze.7 mph70%29.59 "Hg3 mi
7:30 AM84 °FPassing clouds.6 mph74%29.59 "Hg2 mi
7:00 AM81 °FHaze.6 mph79%29.56 "Hg2 mi
6:30 AM81 °FHaze.3 mph79%29.56 "Hg2 mi
6:00 AM79 °FHaze.No wind84%29.56 "Hg2 mi
5:30 AM79 °FHaze.3 mph84%29.56 "Hg2 mi
5:00 AM79 °FHaze.2 mph84%29.56 "Hg2 mi
4:00 AM81 °FPassing clouds.3 mph79%29.56 "Hg3 mi
Weather by CustomWeather, © 2015

See weather overviewHow to use our weather pages